When you browse on this site, cookies collect data to enhance your experience and personalize the content and advertising you see.
Visit our Privacy Policy to learn more. By continuing to use the site, you agree to this use of cookies and data.
  • In Romania
  • List of Countries
  • For 7 days
  • Water Temperature
  • Weather Map
  • Weather Widgets
  • user-avatar
    Login

    Hourly Weather Tamale

    Today, 30 May, Saturday

    Time Temperature Precipitation Wind Pressure Humidity
    00:00 +26°C° 0.2 mm 2 mps 742 mmHg 84%
    01:00 +26°C° 0 mm 2 mps 742 mmHg 86%
    02:00 +26°C° 0 mm 2 mps 741 mmHg 88%
    03:00 +26°C° 0 mm 2 mps 741 mmHg 90%
    04:00 +26°C° 0 mm 2 mps 741 mmHg 91%
    05:00 +26°C° 0 mm 2 mps 742 mmHg 92%
    06:00 +26°C° 0 mm 2 mps 742 mmHg 93%
    07:00 +28°C° 0 mm 2 mps 742 mmHg 84%
    08:00 +30°C° 0 mm 2 mps 742 mmHg 76%
    09:00 +33°C° 0 mm 3 mps 743 mmHg 67%
    10:00 +35°C° 0 mm 3 mps 743 mmHg 59%
    11:00 +37°C° 0 mm 2 mps 742 mmHg 51%
    12:00 +39°C° 0 mm 2 mps 742 mmHg 43%
    13:00 +40°C° 0 mm 1 mps 742 mmHg 39%
    14:00 +41°C° 0 mm 1 mps 741 mmHg 36%
    15:00 +39°C° 0 mm 0 mps 740 mmHg 32%
    16:00 +37°C° 1.3 mm 1 mps 740 mmHg 48%
    17:00 +34°C° 1.3 mm 2 mps 740 mmHg 63%
    18:00 +29°C° 1.3 mm 3 mps 740 mmHg 78%
    19:00 +28°C° 3.5 mm 2 mps 740 mmHg 82%
    20:00 +27°C° 3.5 mm 1 mps 741 mmHg 86%
    21:00 +24°C° 3.5 mm 0 mps 742 mmHg 90%
    22:00 +26°C° 1 mm 1 mps 742 mmHg 89%
    23:00 +26°C° 1 mm 1 mps 743 mmHg 89%

    Tomorrow, 31 May, Sunday

    Time Temperature Precipitation Wind Pressure Humidity
    00:00 +26°C° 1 mm 1 mps 743 mmHg 89%
    01:00 +26°C° 0.3 mm 1 mps 742 mmHg 89%
    02:00 +26°C° 0.3 mm 2 mps 742 mmHg 90%
    03:00 +26°C° 0.3 mm 2 mps 742 mmHg 90%
    04:00 +26°C° 0 mm 2 mps 742 mmHg 91%
    05:00 +26°C° 0 mm 2 mps 742 mmHg 91%
    06:00 +26°C° 0 mm 2 mps 743 mmHg 92%
    07:00 +28°C° 0 mm 2 mps 743 mmHg 85%
    08:00 +29°C° 0 mm 3 mps 743 mmHg 79%
    09:00 +30°C° 0 mm 3 mps 744 mmHg 73%
    10:00 +33°C° 0 mm 3 mps 743 mmHg 66%
    11:00 +35°C° 0 mm 3 mps 743 mmHg 58%
    12:00 +37°C° 0 mm 3 mps 743 mmHg 50%
    13:00 +38°C° 0 mm 2 mps 742 mmHg 47%
    14:00 +37°C° 0 mm 1 mps 741 mmHg 44%
    15:00 +39°C° 0 mm 1 mps 741 mmHg 41%
    16:00 +37°C° 0 mm 1 mps 741 mmHg 46%
    17:00 +35°C° 0 mm 1 mps 741 mmHg 51%
    18:00 +33°C° 0 mm 1 mps 741 mmHg 56%
    19:00 +32°C° 0.2 mm 1 mps 741 mmHg 62%
    20:00 +31°C° 0.2 mm 1 mps 742 mmHg 69%
    21:00 +29°C° 0.2 mm 2 mps 743 mmHg 76%
    22:00 +29°C° 0.1 mm 2 mps 743 mmHg 78%
    23:00 +28°C° 0.1 mm 1 mps 743 mmHg 81%

    Day after tomorrow, 1 June, Monday

    Time Temperature Precipitation Wind Pressure Humidity
    00:00 +28°C° 0.1 mm 1 mps 743 mmHg 83%
    01:00 +27°C° 0 mm 2 mps 743 mmHg 86%
    02:00 +27°C° 0 mm 2 mps 743 mmHg 88%
    03:00 +27°C° 0 mm 2 mps 742 mmHg 90%
    04:00 +27°C° 0 mm 2 mps 743 mmHg 91%
    05:00 +27°C° 0 mm 2 mps 743 mmHg 92%
    06:00 +26°C° 0 mm 3 mps 743 mmHg 93%
    07:00 +28°C° 0 mm 3 mps 743 mmHg 86%
    08:00 +29°C° 0 mm 3 mps 744 mmHg 80%
    09:00 +30°C° 0 mm 3 mps 744 mmHg 74%
    10:00 +33°C° 0 mm 3 mps 744 mmHg 66%
    11:00 +35°C° 0 mm 3 mps 743 mmHg 59%
    12:00 +37°C° 0 mm 3 mps 743 mmHg 51%
    13:00 +37°C° 0 mm 2 mps 742 mmHg 49%
    14:00 +38°C° 0 mm 2 mps 742 mmHg 46%
    15:00 +39°C° 0 mm 2 mps 741 mmHg 43%
    16:00 +37°C° 0 mm 2 mps 741 mmHg 47%
    17:00 +36°C° 0 mm 2 mps 741 mmHg 52%
    18:00 +35°C° 0 mm 2 mps 741 mmHg 57%
    19:00 +32°C° 0.3 mm 2 mps 741 mmHg 64%
    20:00 +30°C° 0.3 mm 2 mps 742 mmHg 71%
    21:00 +29°C° 0.3 mm 2 mps 743 mmHg 78%
    22:00 +28°C° 0.6 mm 2 mps 743 mmHg 81%
    23:00 +28°C° 0.6 mm 2 mps 743 mmHg 84%

    2 June, Tuesday

    Time Temperature Precipitation Wind Pressure Humidity
    00:00 +27°C° 0.6 mm 2 mps 743 mmHg 87%
    01:00 +27°C° 0 mm 2 mps 743 mmHg 89%
    02:00 +27°C° 0 mm 2 mps 742 mmHg 90%
    03:00 +26°C° 0 mm 2 mps 742 mmHg 92%
    04:00 +26°C° 0 mm 2 mps 743 mmHg 92%
    05:00 +26°C° 0 mm 1 mps 743 mmHg 93%
    06:00 +26°C° 0 mm 1 mps 744 mmHg 93%
    07:00 +27°C° 0 mm 2 mps 744 mmHg 88%
    08:00 +28°C° 0 mm 2 mps 744 mmHg 83%
    09:00 +29°C° 0 mm 3 mps 744 mmHg 78%
    10:00 +31°C° 0 mm 3 mps 743 mmHg 70%
    11:00 +34°C° 0 mm 3 mps 743 mmHg 62%
    12:00 +36°C° 0 mm 3 mps 742 mmHg 54%
    13:00 +37°C° 0 mm 3 mps 742 mmHg 51%
    14:00 +37°C° 0 mm 2 mps 741 mmHg 47%
    15:00 +38°C° 0 mm 2 mps 741 mmHg 44%
    16:00 +37°C° 0 mm 2 mps 741 mmHg 48%
    17:00 +36°C° 0 mm 2 mps 741 mmHg 52%
    18:00 +34°C° 0 mm 2 mps 741 mmHg 57%
    19:00 +32°C° 0 mm 2 mps 741 mmHg 62%
    20:00 +31°C° 0 mm 2 mps 742 mmHg 66%
    21:00 +30°C° 0 mm 2 mps 742 mmHg 71%
    22:00 +29°C° 0 mm 2 mps 742 mmHg 74%
    23:00 +29°C° 0 mm 2 mps 742 mmHg 77%

    3 June, Wednesday

    Time Temperature Precipitation Wind Pressure Humidity
    00:00 +28°C° 0 mm 2 mps 742 mmHg 79%
    01:00 +28°C° 0 mm 2 mps 742 mmHg 81%
    02:00 +28°C° 0 mm 2 mps 742 mmHg 82%
    03:00 +27°C° 0 mm 2 mps 741 mmHg 83%
    04:00 +27°C° 0 mm 2 mps 742 mmHg 84%
    05:00 +27°C° 0 mm 2 mps 742 mmHg 85%
    06:00 +27°C° 0 mm 2 mps 742 mmHg 86%
    07:00 +28°C° 0 mm 3 mps 743 mmHg 81%
    08:00 +29°C° 0 mm 3 mps 743 mmHg 76%
    09:00 +31°C° 0 mm 3 mps 743 mmHg 70%
    10:00 +33°C° 0 mm 3 mps 743 mmHg 66%
    11:00 +34°C° 0 mm 3 mps 742 mmHg 62%
    12:00 +35°C° 0 mm 3 mps 741 mmHg 58%
    13:00 +36°C° 0 mm 3 mps 741 mmHg 53%
    14:00 +37°C° 0 mm 2 mps 740 mmHg 48%
    15:00 +39°C° 0 mm 2 mps 740 mmHg 43%
    16:00 +37°C° 0 mm 2 mps 740 mmHg 48%
    17:00 +36°C° 0 mm 2 mps 740 mmHg 52%
    18:00 +35°C° 0 mm 2 mps 740 mmHg 57%
    19:00 +32°C° 0.4 mm 2 mps 741 mmHg 63%
    20:00 +31°C° 0.4 mm 2 mps 741 mmHg 70%
    21:00 +29°C° 0.4 mm 3 mps 742 mmHg 76%
    22:00 +29°C° 0.2 mm 3 mps 742 mmHg 79%
    23:00 +28°C° 0.2 mm 3 mps 742 mmHg 82%

    4 June, Thursday

    Time Temperature Precipitation Wind Pressure Humidity
    00:00 +27°C° 0.2 mm 3 mps 742 mmHg 85%
    01:00 +27°C° 0 mm 3 mps 741 mmHg 86%
    02:00 +27°C° 0 mm 3 mps 741 mmHg 88%
    03:00 +27°C° 0 mm 3 mps 741 mmHg 90%
    04:00 +26°C° 0 mm 3 mps 741 mmHg 90%
    05:00 +26°C° 0 mm 2 mps 742 mmHg 91%
    06:00 +26°C° 0 mm 2 mps 742 mmHg 92%
    07:00 +27°C° 0 mm 2 mps 743 mmHg 86%
    08:00 +28°C° 0 mm 3 mps 743 mmHg 81%
    09:00 +30°C° 0 mm 3 mps 744 mmHg 75%
    10:00 +31°C° 0 mm 3 mps 743 mmHg 70%
    11:00 +33°C° 0 mm 3 mps 743 mmHg 66%
    12:00 +34°C° 0 mm 3 mps 742 mmHg 61%
    13:00 +35°C° 0 mm 3 mps 742 mmHg 59%
    14:00 +35°C° 0 mm 3 mps 741 mmHg 56%
    15:00 +36°C° 0 mm 3 mps 740 mmHg 54%
    16:00 +35°C° 0 mm 3 mps 741 mmHg 58%
    17:00 +34°C° 0 mm 2 mps 741 mmHg 61%
    18:00 +32°C° 0 mm 2 mps 741 mmHg 65%
    19:00 +31°C° 0.1 mm 2 mps 741 mmHg 68%
    20:00 +30°C° 0.1 mm 2 mps 742 mmHg 71%
    21:00 +29°C° 0.1 mm 2 mps 742 mmHg 74%
    22:00 +28°C° 0 mm 2 mps 742 mmHg 75%
    23:00 +28°C° 0 mm 1 mps 742 mmHg 76%
    Show more